GFSSE_prec_cthk_150.txt.gz
RH
42 35 31 32 32 31 30 29 28 25 24 23 21 18 17 17 19 20 23 23 23 24 25 26 29 31 31 32 32 34 35 38 40 42 43 53 59 53 54 56 58 61 66
43 40 36 37 33 33 34 32 31 28 28 26 24 21 19 17 19 20 19 21 23 23 24 25 26 28 29 30 32 35 36 37 39 40 45 58 68 63 52 51 55 56 61
37 41 44 45 41 40 38 35 32 30 32 30 28 25 21 19 19 20 20 20 21 22 24 26 26 26 28 29 32 35 35 35 37 37 40 52 60 59 50 50 51 53 61
44 46 47 48 48 47 46 42 38 31 34 34 32 29 24 21 19 21 22 21 22 24 25 27 26 26 27 27 29 30 30 31 34 34 40 51 59 54 50 48 45 55 63
43 48 51 53 53 56 56 51 47 35 34 36 35 32 27 24 21 21 22 23 22 23 25 26 26 25 25 25 26 26 28 32 34 36 43 51 53 52 48 44 48 54 62
41 45 52 58 59 56 55 59 52 42 36 37 37 35 32 27 24 23 22 22 23 23 23 24 24 24 24 24 25 28 30 33 34 37 48 51 48 50 45 47 48 51 58
38 37 39 41 47 54 56 60 56 47 41 38 40 37 35 32 28 25 24 23 24 23 24 25 25 24 24 25 26 28 31 34 36 38 45 47 45 50 44 47 45 51 56
34 37 37 37 38 41 45 51 52 50 46 43 43 41 37 35 32 28 25 25 25 25 26 27 25 24 24 25 27 29 33 32 36 35 41 45 47 46 44 47 45 49 54
31 30 33 37 40 42 45 50 52 50 49 47 46 44 41 39 37 33 30 27 27 27 27 28 27 25 24 25 28 29 32 33 33 33 40 46 47 43 44 45 46 47 50
28 28 26 30 36 43 45 50 55 54 53 54 49 48 46 42 39 37 34 32 30 30 30 29 29 28 27 26 28 28 32 34 33 34 40 43 46 42 45 44 44 45 46
27 28 28 26 30 33 41 46 51 57 57 53 57 57 53 49 44 41 38 36 33 31 31 31 31 30 29 27 29 29 31 34 34 35 36 41 45 43 47 47 45 43 42
26 25 24 24 23 21 22 31 44 53 56 58 59 64 66 64 57 47 43 40 38 36 34 34 33 32 31 29 29 30 32 33 34 35 36 43 44 42 47 51 47 42 39
27 26 25 23 23 22 21 19 21 30 50 59 63 65 65 65 62 58 54 45 41 39 37 36 35 33 33 33 32 31 32 34 34 34 38 41 44 48 47 49 46 47 37
26 25 23 22 21 21 21 21 20 19 22 36 59 69 71 71 69 69 66 63 49 43 39 39 38 37 35 36 35 37 34 34 35 34 38 44 41 46 49 49 48 41 37
25 24 23 22 21 20 20 20 21 21 20 20 24 42 56 77 72 74 74 72 70 59 44 40 40 40 39 38 38 39 39 37 38 37 36 41 42 42 46 50 46 45 40
23 22 21 20 19 19 19 19 20 20 20 20 18 20 25 40 70 86 78 79 79 72 56 44 40 43 44 43 41 41 40 40 39 39 37 42 43 47 48 46 46 45 47
23 22 21 21 21 20 19 18 17 16 17 18 18 18 17 20 29 57 81 81 82 81 74 63 48 41 46 48 45 43 43 43 42 40 41 40 40 47 48 48 47 42 42
23 23 22 21 20 19 18 16 15 14 14 14 14 15 17 17 18 24 40 73 92 99 85 81 66 50 46 50 50 46 43 43 45 44 43 39 43 46 46 44 41 40 39
24 24 23 22 19 17 15 14 14 14 14 14 14 14 14 15 18 19 21 33 64 87 93 89 83 66 49 52 53 52 49 46 44 49 44 43 44 47 45 42 40 42 42
27 25 24 22 20 19 18 16 15 14 13 13 14 14 14 15 14 16 18 21 36 57 88 87 81 81 62 52 59 55 54 51 48 49 47 46 45 50 51 49 45 44 44
29 28 27 26 24 21 19 17 15 15 15 15 15 16 16 16 16 15 17 19 27 42 56 89 82 81 83 70 65 61 58 55 52 50 49 48 47 47 48 49 49 49 50
32 32 30 29 26 24 23 22 21 20 19 19 19 19 20 20 20 19 17 18 21 31 43 52 79 88 84 87 77 62 67 60 55 50 49 50 50 49 48 50 48 46 49
34 33 31 28 26 26 25 25 25 24 24 24 23 24 25 26 26 26 24 21 21 25 34 49 59 96 84 82 93 67 72 64 61 54 47 50 52 46 50 49 52 50 49
36 32 29 28 27 28 29 28 28 29 29 29 29 30 30 31 33 34 31 27 25 24 25 34 52 69 81 99 96 84 77 76 72 59 49 49 54 49 47 51 50 58 57
33 30 27 27 27 30 30 32 32 32 33 33 34 35 37 38 40 42 40 36 33 31 29 29 33 40 68 79 90 90 86 83 88 67 54 52 53 49 46 51 54 57 65
31 28 28 27 28 29 32 35 35 36 39 40 43 44 43 43 44 46 46 42 39 37 35 34 31 35 41 52 74 94 94 86 93 78 61 54 51 49 46 50 51 57 64

GFSSE_prec_cthk_153.txt.gz
RH
52 49 41 39 37 37 37 36 35 33 30 28 26 22 19 18 20 25 26 25 24 25 26 26 28 29 29 29 31 33 36 39 40 39 39 49 61 54 52 49 52 54 57
53 53 49 50 46 44 39 38 37 36 32 32 29 26 22 20 21 22 23 22 23 24 24 25 26 27 28 29 30 34 37 37 38 38 39 50 58 58 50 46 50 50 54
47 53 53 53 52 48 46 44 41 39 36 34 33 30 26 22 21 22 22 23 23 23 23 24 26 27 27 28 29 33 35 36 36 37 38 46 52 56 50 47 46 49 57
49 53 54 56 56 54 52 50 47 44 41 35 35 33 29 26 22 22 22 24 24 23 24 26 26 26 26 28 29 31 30 31 33 34 36 43 51 53 47 47 44 53 57
44 47 53 55 58 59 58 57 54 50 48 40 37 36 34 30 26 24 24 24 25 25 24 24 24 25 25 25 27 27 27 30 32 34 37 46 51 50 46 43 47 51 54
38 39 41 42 47 51 54 57 56 52 50 45 39 37 38 34 31 28 27 25 25 25 26 25 23 23 24 24 25 26 29 31 34 35 40 49 49 50 45 44 46 49 54
42 39 39 40 41 43 46 49 51 51 52 49 42 40 39 37 34 31 29 28 28 27 25 24 25 25 24 25 26 27 29 31 34 36 39 45 47 48 46 46 45 48 55
40 39 35 37 41 43 46 49 53 54 53 51 47 44 43 41 38 36 34 30 31 31 29 27 27 26 25 25 26 27 29 32 34 37 37 44 45 49 45 47 45 49 54
37 37 34 36 37 41 46 51 53 55 56 55 57 50 47 47 47 42 39 35 32 33 33 31 29 27 27 27 26 28 30 32 33 33 36 41 46 46 45 48 47 49 55
34 32 31 30 29 35 40 46 51 60 65 57 58 60 63 54 50 47 44 42 37 34 34 34 33 30 28 28 28 28 30 32 34 33 36 42 44 45 44 49 53 52 53
29 28 27 27 27 27 29 36 40 46 51 65 64 60 62 66 68 60 52 47 44 40 36 34 35 33 31 31 31 29 30 32 34 34 35 40 42 47 45 52 54 52 49
27 26 25 25 25 25 24 22 20 25 35 47 56 63 63 63 63 70 76 69 57 47 44 38 36 35 33 32 33 32 31 32 35 35 34 34 39 46 49 53 56 55 49
29 29 27 25 25 24 23 22 22 22 20 21 29 51 62 68 66 66 64 68 66 59 53 45 40 36 35 33 35 35 34 33 35 34 35 36 40 43 46 51 54 54 53
28 28 26 25 24 24 24 24 23 22 22 22 21 22 31 45 59 74 73 69 67 68 66 62 51 43 39 36 36 37 35 34 35 34 34 36 42 43 49 49 51 54 54
28 25 23 22 22 22 22 22 21 21 22 22 22 20 19 21 28 46 56 71 70 70 72 73 72 59 48 43 39 38 39 36 36 37 36 35 39 43 42 53 51 52 52
25 24 22 21 21 20 19 19 18 17 16 16 17 19 19 19 18 19 25 38 74 71 79 83 79 78 68 50 42 38 42 43 38 38 39 38 37 41 45 48 50 52 50
25 24 23 23 22 20 20 19 17 16 15 14 13 13 13 15 16 17 17 20 28 52 73 90 86 79 83 69 51 43 39 44 44 40 40 40 37 40 43 47 50 50 53
25 24 24 23 23 22 20 18 17 16 15 14 13 13 13 13 13 13 14 16 18 28 43 63 73 92 84 91 75 57 46 41 47 43 42 42 42 38 38 42 50 48 50
26 25 25 25 24 22 21 19 18 17 16 15 14 13 13 13 13 13 12 13 15 19 31 37 54 73 73 97 90 74 57 49 46 49 43 44 43 40 37 43 49 48 44
27 26 26 26 25 24 23 21 20 17 16 15 15 14 14 14 13 13 13 14 14 16 21 29 37 39 39 56 77 90 70 53 53 50 47 46 46 44 42 40 42 45 44
29 27 28 27 26 26 23 21 19 17 17 16 16 17 17 16 16 17 16 17 18 18 18 25 29 67 69 47 66 92 84 69 59 53 50 47 47 44 44 44 45 45 46
29 28 28 27 26 25 22 21 21 20 21 20 20 20 19 19 20 21 23 22 22 23 21 22 33 32 53 84 55 94 99 85 71 56 54 48 49 47 44 45 45 47 49
32 32 31 29 25 22 21 21 22 23 24 23 22 22 22 22 24 24 26 27 27 28 28 26 29 45 41 48 96 71 75 87 89 68 57 49 52 50 44 44 45 45 49
37 36 32 28 24 21 21 22 23 24 24 26 27 27 27 28 28 30 30 32 32 31 33 34 35 39 42 36 51 50 62 81 95 86 68 52 55 55 47 45 46 47 46
39 35 31 26 23 22 23 23 24 24 26 28 29 30 31 30 32 33 35 37 39 37 38 40 40 39 49 47 46 87 69 66 91 88 83 64 62 58 52 46 45 46 46
39 33 28 26 25 25 25 26 26 26 26 27 29 31 32 35 36 38 42 46 46 45 43 43 44 41 41 46 46 46 80 92 84 95 92 88 76 63 56 49 46 46 47

GFSSE_prec_cthk_156.txt.gz
RH
57 49 38 39 38 37 35 35 35 35 34 31 29 27 24 21 21 23 29 27 25 26 28 27 28 30 30 30 31 32 35 37 40 41 42 49 58 58 52 49 52 56 55
56 52 48 46 45 42 41 40 39 39 38 37 32 30 27 24 23 24 24 25 24 26 27 27 27 28 28 29 30 33 36 37 39 38 41 45 53 58 56 48 52 51 56
60 61 54 53 51 50 48 45 47 46 44 41 37 33 31 28 25 24 24 24 24 24 25 26 26 27 27 29 30 32 35 35 36 37 39 50 54 55 55 49 49 53 60
53 54 53 55 58 56 56 55 54 51 47 45 45 38 35 32 29 26 25 25 25 25 24 26 27 27 27 28 29 30 31 30 32 35 43 47 53 53 52 48 48 53 60
50 50 49 48 49 51 54 55 56 54 52 51 52 43 40 36 32 30 28 26 26 27 26 26 26 26 26 27 27 27 26 27 30 34 43 48 60 54 52 45 47 52 57
46 47 46 45 45 46 45 46 48 53 54 51 51 51 43 41 36 32 31 29 28 28 28 26 26 26 26 26 27 27 27 28 31 41 41 47 55 52 50 45 47 48 56
48 45 43 43 44 46 51 48 47 46 49 52 50 53 50 48 45 39 34 32 30 29 29 28 27 29 29 28 27 27 27 30 33 41 41 46 52 47 49 46 47 46 53
48 48 43 42 43 41 43 45 50 52 50 54 55 54 51 51 49 48 43 36 34 31 30 30 30 31 31 29 29 28 28 30 34 41 44 44 48 46 48 45 48 46 52
42 43 42 40 39 39 39 44 46 50 53 55 57 57 56 58 56 50 47 43 38 35 33 33 33 32 32 31 30 30 30 31 35 41 41 45 43 45 48 46 48 48 53
37 36 35 33 31 32 35 39 43 46 49 54 61 64 57 57 57 63 58 52 46 42 37 37 36 36 34 33 32 32 32 32 34 40 40 45 43 46 44 45 47 52 54
32 30 28 27 26 26 26 27 29 33 37 40 51 57 62 63 66 64 70 68 64 59 48 43 40 38 37 37 34 35 35 35 40 41 40 40 40 44 46 44 49 54 56
27 26 26 26 27 26 26 26 24 23 22 21 25 39 55 57 61 65 66 64 63 67 69 64 51 45 41 41 41 37 36 40 44 43 44 37 35 38 44 47 49 53 55
29 30 29 28 28 27 26 26 26 26 25 24 23 21 22 29 46 60 64 76 76 68 68 70 65 56 53 48 47 47 40 40 41 42 45 38 34 35 43 47 52 54 54
31 30 28 27 25 23 23 23 23 23 23 23 23 22 21 20 21 25 38 58 68 78 76 76 79 79 71 63 51 46 43 41 42 44 44 37 37 36 41 46 50 50 52
30 28 24 23 22 21 21 20 19 19 19 19 18 18 18 18 18 18 19 22 32 52 66 81 81 81 78 72 65 55 47 44 44 44 47 43 37 38 40 50 52 51 50
26 24 23 22 22 22 21 20 19 18 17 16 15 14 13 13 13 14 15 15 16 22 30 48 69 89 81 83 80 67 62 52 47 45 45 47 42 39 40 40 49 53 53
25 24 23 23 23 22 21 21 20 19 18 17 16 15 14 13 12 12 11 12 13 17 16 23 30 54 71 80 84 82 67 65 57 49 46 51 48 42 39 38 42 51 57
25 25 25 25 24 23 22 22 21 20 19 18 17 15 14 14 13 12 12 13 15 14 16 15 23 32 42 64 77 97 80 71 68 56 49 49 53 51 44 40 39 40 50
27 27 27 26 25 24 24 23 22 21 19 18 18 17 15 15 14 13 14 16 12 11 15 19 18 24 32 46 52 63 68 67 68 72 57 53 53 51 52 46 41 39 41
29 28 28 28 26 25 24 24 24 23 22 20 19 17 16 17 15 15 16 16 15 14 13 15 20 21 27 26 48 46 58 62 61 62 69 61 56 53 50 53 48 42 38
30 29 29 27 26 26 26 25 23 22 20 18 18 18 18 18 18 18 21 21 21 20 19 18 17 20 23 31 31 40 56 42 54 59 75 75 60 57 55 50 53 50 44
32 29 29 29 29 28 28 24 21 21 21 20 19 20 20 20 20 20 22 23 23 23 23 24 24 24 24 30 33 42 55 58 71 59 70 82 67 57 59 54 53 52 53
32 31 32 33 35 31 25 23 22 23 23 21 20 20 22 23 23 24 24 25 26 26 26 26 28 30 29 30 38 43 57 58 62 74 68 80 82 66 58 60 53 53 52
35 37 37 36 35 30 25 24 24 25 24 23 23 23 24 25 25 26 28 28 29 30 32 31 32 35 38 34 35 37 43 59 70 73 74 78 76 78 67 65 59 54 51
41 43 41 40 38 32 29 26 28 28 27 26 25 24 25 27 29 29 31 32 33 34 34 36 37 40 42 39 41 41 45 53 56 64 65 71 69 75 84 71 63 61 53
47 48 44 40 37 34 31 31 29 29 28 27 26 27 27 28 30 30 32 34 37 39 41 43 44 45 45 44 42 48 51 55 55 56 76 87 82 96 91 88 70 66 62

GFSSE_prec_cthk_159.txt.gz
RH
62 52 40 39 39 38 36 36 36 35 36 36 34 31 29 26 23 24 30 30 26 26 28 28 29 31 32 30 31 32 34 36 38 40 40 41 50 56 56 49 49 60 52
56 50 46 43 44 43 44 44 44 42 42 42 39 35 33 30 28 26 27 28 28 26 27 27 28 29 30 31 31 32 35 38 38 38 39 41 44 51 57 50 49 52 53
57 59 55 50 51 51 51 50 50 51 48 48 45 45 37 34 32 28 27 27 27 26 25 25 26 28 29 30 31 31 34 35 36 36 40 44 48 49 53 51 49 46 54
54 56 52 51 49 50 51 51 52 53 51 49 47 48 47 38 36 31 28 27 27 27 26 27 27 28 28 29 30 30 31 31 32 34 43 60 57 51 54 51 47 46 55
53 49 48 47 46 47 47 46 47 49 50 52 50 47 49 45 40 34 31 29 28 28 27 27 28 29 28 27 28 28 28 28 31 34 47 51 68 60 54 52 45 48 53
49 49 48 46 44 46 47 48 49 47 45 47 49 51 48 49 43 38 35 32 31 30 30 29 28 28 29 30 28 28 28 29 30 39 64 52 47 76 52 50 47 49 52
50 48 47 43 41 42 42 43 46 50 51 50 50 51 50 50 47 45 42 39 35 33 33 32 31 30 31 31 30 29 28 29 30 48 45 49 50 52 50 48 47 49 50
48 49 50 46 44 42 39 37 40 43 49 54 55 55 53 52 50 48 46 44 43 39 36 35 33 33 33 33 32 30 29 29 33 40 49 54 47 46 47 48 47 49 49
39 40 41 42 40 38 36 38 39 40 44 49 53 60 66 62 54 54 55 55 50 43 40 39 37 34 35 35 34 33 31 29 30 39 50 50 46 46 41 47 47 48 52
35 34 34 33 32 32 32 33 37 43 45 44 44 53 60 72 70 66 59 56 59 62 55 45 42 40 38 37 35 33 33 32 30 33 42 46 40 42 43 45 47 46 50
33 32 30 27 26 26 26 27 26 26 26 27 29 33 43 55 63 70 74 77 77 71 68 64 67 59 48 40 36 35 35 34 38 40 44 45 37 36 39 43 47 46 52
33 30 28 26 27 27 26 26 26 26 25 25 24 22 22 27 42 57 59 64 70 73 71 69 64 64 66 59 48 41 37 35 41 45 50 46 36 33 33 36 44 48 50
32 29 28 29 29 28 26 25 24 23 23 23 24 24 23 22 20 21 25 40 55 64 75 82 86 77 71 72 67 58 49 44 42 48 51 44 37 34 30 31 37 46 52
31 28 29 29 26 23 22 20 20 20 20 19 19 19 20 20 20 20 20 19 21 31 49 66 72 83 89 90 84 75 68 62 56 49 51 48 40 36 33 30 34 42 48
32 30 30 26 22 21 21 21 20 19 18 17 17 16 15 15 14 14 14 14 16 19 21 25 40 57 70 86 93 91 81 72 63 61 56 51 46 39 34 34 32 41 47
35 33 27 23 21 20 20 21 20 19 18 19 19 17 15 14 13 13 12 14 17 17 18 20 18 24 32 47 65 80 90 90 82 69 65 64 60 47 39 34 34 39 42
35 31 24 22 21 22 22 22 21 20 20 20 19 18 16 15 14 13 14 16 18 17 15 16 16 18 21 23 32 55 77 81 87 80 73 63 66 61 47 39 35 37 37
33 28 24 24 24 24 23 23 22 22 22 21 20 19 17 16 15 14 14 17 17 14 14 16 18 18 18 21 20 28 43 72 81 92 75 70 65 67 63 47 40 36 38
31 28 28 26 26 25 24 24 26 25 25 24 24 20 17 18 15 14 15 14 14 15 17 19 19 20 19 19 22 25 33 44 62 66 57 62 63 63 71 62 49 41 37
31 30 29 28 26 27 28 28 29 28 26 25 24 23 23 24 20 16 18 17 16 16 17 17 19 19 18 19 21 22 27 42 44 53 65 66 63 64 60 72 58 52 43
31 32 31 30 29 28 29 30 30 28 26 25 24 24 24 23 24 24 21 19 20 20 18 18 20 21 21 22 22 22 27 28 32 45 53 65 68 62 55 61 64 53 52
33 34 33 33 33 30 31 32 30 28 26 25 25 25 25 26 26 26 23 22 20 20 20 21 22 22 23 25 27 27 30 29 31 32 45 57 63 60 61 60 67 61 52
37 37 36 34 36 33 31 34 32 29 27 26 26 26 25 25 26 25 24 24 24 24 24 26 25 27 26 26 29 36 38 38 39 33 38 38 47 56 70 65 70 62 59
39 39 37 38 40 39 36 36 32 30 29 29 28 28 29 28 28 27 23 24 26 28 30 28 28 29 31 30 30 35 44 45 51 48 46 48 57 61 65 74 71 71 64
42 41 43 45 44 43 41 35 33 33 32 30 30 29 28 28 28 27 25 25 27 29 29 30 30 32 34 38 39 37 38 46 49 51 52 63 65 62 69 74 73 87 78
46 50 49 49 48 47 42 36 36 33 32 32 30 30 29 28 27 27 25 26 29 30 31 32 33 34 38 43 45 45 45 46 49 55 55 60 57 95 79 78 76 84 85

GFSSE_prec_cthk_162.txt.gz
RH
55 53 44 36 34 36 35 36 38 38 37 39 37 35 31 28 26 26 28 28 28 27 27 27 27 28 29 29 30 30 33 36 37 38 36 38 40 45 51 50 47 51 54
52 52 48 42 42 42 41 41 42 42 41 41 42 40 39 34 31 29 28 27 28 28 28 27 26 26 28 28 29 30 32 35 36 35 34 33 34 41 47 51 49 51 51
52 52 52 46 45 44 43 43 44 45 47 46 44 42 40 40 34 33 30 29 28 27 27 28 27 27 28 28 28 28 30 32 32 30 30 54 56 40 44 49 47 47 49
47 50 47 45 44 44 43 43 42 42 45 46 48 47 44 44 40 36 33 31 29 28 28 27 28 28 28 27 27 27 27 27 28 29 39 77 64 49 46 49 46 44 47
47 48 47 44 43 43 42 43 44 43 43 44 43 46 48 45 46 39 34 33 31 29 28 28 28 28 28 28 28 27 27 27 27 29 41 61 49 43 55 47 46 43 46
46 46 46 43 39 38 38 39 39 42 45 47 47 46 47 47 47 46 42 38 36 34 31 30 30 29 29 30 30 29 27 26 26 32 58 66 43 41 56 47 44 43 45
46 46 45 43 40 40 40 38 37 39 40 46 48 51 53 53 51 49 47 44 42 39 38 35 33 32 32 32 31 30 29 27 27 33 57 62 39 49 46 45 44 44 45
44 45 45 44 43 40 38 36 36 35 36 41 47 50 51 57 58 55 51 48 48 46 42 39 37 35 34 33 33 32 31 30 28 32 38 50 34 42 38 43 43 45 44
36 37 36 36 36 35 34 33 35 39 40 41 45 48 52 57 65 72 62 56 55 56 53 53 48 40 37 35 35 35 33 33 31 30 35 57 46 38 39 40 40 44 43
34 32 31 31 30 29 26 26 27 28 28 28 30 32 37 47 55 63 73 79 75 68 63 60 65 62 55 48 40 37 36 35 34 33 35 43 44 37 35 38 39 40 42
34 31 30 29 28 26 24 25 26 25 25 24 24 23 23 24 31 45 55 64 76 79 78 75 73 69 66 62 65 57 46 39 36 35 36 43 47 42 36 34 36 38 40
35 33 30 28 27 26 28 28 27 25 24 23 23 23 23 23 22 21 22 27 40 53 61 66 76 75 77 73 61 65 63 53 43 38 39 47 59 47 40 32 31 33 39
35 31 29 27 26 27 28 26 22 21 20 19 19 19 19 19 20 20 20 20 20 20 27 41 56 68 74 76 80 76 68 68 65 53 46 48 50 46 41 37 31 29 35
34 30 28 27 28 28 26 22 20 20 19 18 17 15 15 14 14 15 15 15 16 17 18 19 22 32 50 65 70 68 78 87 85 80 62 55 54 49 44 39 36 32 33
32 30 29 29 29 27 22 20 20 19 19 18 17 16 15 15 14 13 13 13 14 15 15 15 16 16 17 24 40 57 71 84 90 87 85 72 58 58 51 47 38 36 33
32 30 30 30 28 24 21 20 20 20 20 19 19 18 17 15 14 13 13 13 15 13 13 13 12 12 12 14 15 24 40 57 67 92 86 81 70 69 61 58 54 40 36
34 33 31 30 27 22 21 21 22 21 22 20 21 18 17 16 15 14 14 14 13 13 13 12 12 12 13 14 14 14 19 28 40 61 83 77 70 65 67 61 59 54 42
36 35 32 30 26 24 22 23 23 23 23 23 23 20 18 16 15 14 14 14 14 14 13 12 12 12 13 15 15 12 15 16 21 34 51 60 79 72 72 67 63 60 52
33 32 29 26 26 26 24 25 26 24 24 24 22 19 18 17 16 15 15 15 15 14 16 16 15 14 13 12 13 13 14 15 16 22 27 41 61 74 61 60 61 62 55
32 31 28 27 27 27 28 28 27 27 28 26 25 22 20 19 17 18 18 17 17 16 17 17 18 19 18 18 16 13 12 11 13 20 25 33 44 54 70 59 58 58 60
31 30 30 30 29 28 28 28 26 28 29 28 26 25 24 25 23 22 20 19 20 20 21 21 20 19 20 21 18 15 11 10 11 13 21 23 36 47 56 59 59 58 61
32 31 32 33 32 30 28 30 29 31 31 29 27 27 27 27 27 26 23 22 22 21 20 21 22 23 23 23 25 24 20 13 16 19 22 23 25 40 58 62 68 59 55
36 36 36 36 36 32 31 35 34 34 33 31 29 28 29 28 28 27 24 23 21 21 21 22 22 23 23 24 28 32 33 30 25 21 27 29 36 26 30 49 61 65 58
40 40 40 40 39 38 36 36 37 36 35 31 31 29 31 29 29 28 24 23 24 24 23 23 24 26 28 27 28 31 36 39 36 28 20 32 40 46 52 45 62 75 64
49 48 45 43 42 43 44 42 42 39 35 34 33 32 29 28 29 28 25 25 25 27 27 26 26 26 30 31 32 33 35 40 43 42 32 27 35 47 60 62 61 60 66
55 55 53 51 51 50 49 50 46 42 37 34 31 29 28 29 29 28 25 25 24 25 24 25 26 27 30 33 35 39 40 42 43 47 46 38 39 37 60 75 73 76 81

GFSSE_prec_cthk_165.txt.gz
RH
61 53 44 36 35 40 40 37 36 36 37 36 36 34 32 30 26 26 26 26 26 25 25 25 24 25 25 25 26 29 32 36 38 40 37 38 39 40 46 50 52 50 50
62 63 50 41 41 41 40 39 38 39 40 41 41 39 36 34 31 28 26 26 26 26 26 26 24 24 25 25 26 28 32 34 36 34 36 41 39 41 44 48 49 48 46
64 63 51 45 43 42 41 41 39 39 39 42 43 43 42 36 36 32 30 27 26 26 26 26 26 26 25 24 25 26 28 30 32 28 37 59 61 55 44 48 49 44 46
55 51 46 45 44 42 39 38 38 38 38 38 38 40 43 44 40 39 34 33 30 27 27 26 27 27 27 25 24 24 26 27 31 28 36 58 68 55 50 49 48 43 46
47 47 47 44 41 37 36 36 35 36 37 40 42 43 43 44 44 42 39 34 32 31 29 28 28 27 28 27 26 26 26 27 29 30 34 56 60 49 47 55 46 44 45
45 45 44 41 36 35 35 36 36 35 36 38 42 45 46 48 48 45 44 41 38 36 34 32 30 29 28 28 28 28 28 28 28 32 41 57 74 56 42 44 42 43 44
46 43 42 41 38 36 34 34 35 36 34 36 41 46 48 51 52 52 49 46 43 42 39 37 35 33 31 29 29 29 29 29 29 32 45 53 57 43 53 42 42 42 43
43 42 41 41 39 37 35 35 36 36 36 38 40 44 47 48 51 55 57 58 51 47 46 47 44 40 36 33 31 30 30 30 30 31 39 39 55 65 45 43 44 42 44
34 35 35 35 35 34 33 33 31 31 33 35 37 37 37 43 49 54 60 62 66 62 54 51 51 49 50 48 43 37 33 33 31 32 34 40 59 55 59 40 41 41 43
32 32 32 32 32 30 28 27 25 26 26 26 25 25 26 30 31 37 49 60 65 69 72 78 74 69 62 59 59 57 55 46 37 35 34 38 43 44 56 41 35 39 40
34 32 31 32 31 29 27 26 27 28 28 26 25 24 23 23 23 24 26 30 44 55 62 66 70 74 73 69 67 67 59 54 52 48 40 36 38 47 63 61 40 35 36
36 34 34 32 30 28 26 27 28 28 26 23 21 21 20 19 19 19 20 20 20 22 29 39 49 54 57 67 70 72 69 67 64 57 54 46 46 47 61 59 49 36 33
35 35 32 30 28 28 27 28 29 26 22 20 19 18 17 16 15 14 14 15 15 16 18 20 24 26 35 47 55 64 68 70 73 76 71 60 49 57 61 63 51 42 34
35 32 30 28 28 28 28 29 27 22 20 19 18 17 16 16 14 14 13 13 13 13 12 12 13 13 15 19 27 39 50 58 70 70 69 67 64 61 66 69 60 47 39
31 30 29 29 28 29 29 28 26 21 20 18 18 17 16 15 15 14 13 13 12 12 12 12 12 11 11 12 13 15 23 35 50 55 58 63 73 80 82 74 68 60 53
33 31 30 30 30 30 29 28 25 22 20 19 19 18 17 16 16 15 14 13 12 12 12 12 11 11 11 10 11 12 12 17 23 38 46 52 55 87 93 87 81 70 66
33 32 32 32 32 31 30 27 25 23 21 20 20 18 17 16 15 14 13 13 13 12 12 12 12 11 11 10 10 11 11 11 15 20 28 36 49 67 73 79 81 77 68
37 37 35 34 32 31 29 27 26 27 24 22 20 19 18 16 15 14 14 13 13 13 13 13 12 11 12 12 11 11 10 10 10 10 17 25 32 51 75 81 82 79 75
37 37 35 32 30 29 28 28 29 30 28 24 22 20 19 18 16 14 14 15 14 14 14 13 14 13 13 12 12 12 12 11 10 9 10 13 24 34 43 57 64 71 66
32 32 32 31 30 29 30 30 30 30 29 27 25 23 21 19 17 16 17 16 16 15 15 15 15 15 15 15 13 12 11 12 11 11 10 10 15 23 32 41 50 82 81
34 34 33 30 28 28 29 31 31 30 30 30 29 27 24 22 20 19 19 19 18 18 18 18 17 16 16 15 14 11 10 12 13 13 13 11 12 18 28 31 47 60 68
35 34 33 33 33 31 30 32 32 33 34 34 33 30 28 26 24 23 21 20 20 20 20 20 19 18 19 20 21 18 16 12 15 13 18 22 21 20 23 31 40 47 64
42 41 40 38 36 35 35 35 35 36 38 38 34 32 31 29 26 26 24 23 23 22 22 22 21 21 20 22 24 26 26 23 19 13 13 15 22 25 27 30 32 39 56
48 46 46 44 45 44 41 39 39 40 40 39 38 36 34 33 31 27 26 24 24 23 23 23 23 23 24 23 24 26 28 31 30 21 13 15 18 22 26 27 31 36 41
57 55 55 53 53 51 50 49 50 49 47 44 41 38 36 33 32 30 28 26 26 28 26 26 24 26 26 26 26 25 25 27 30 34 25 16 16 22 23 29 28 37 44
63 60 58 51 51 51 55 60 59 58 55 51 45 40 37 35 33 30 28 28 28 27 26 25 27 28 27 27 27 28 29 29 29 32 32 29 25 22 26 27 31 33 43

GFSSE_prec_cthk_171.txt.gz
RH
63 56 54 42 35 36 37 35 36 35 38 40 37 36 36 35 34 34 33 30 30 28 28 27 26 26 25 25 24 24 26 28 30 30 32 35 36 37 39 43 47 41 42
62 58 53 44 39 39 38 37 38 38 38 39 39 38 39 39 36 35 33 33 31 29 28 27 26 27 26 26 25 24 25 27 28 27 28 34 47 56 49 47 49 43 40
64 61 60 54 41 41 40 39 40 39 36 37 37 39 39 40 40 39 39 35 34 31 30 28 27 27 27 27 26 26 26 26 27 26 28 33 49 58 54 56 50 45 41
59 61 60 47 43 41 41 40 38 37 37 37 39 39 40 41 41 41 40 39 36 35 32 30 28 27 27 28 27 27 27 26 28 27 27 33 51 52 57 58 54 47 42
54 53 51 46 43 43 42 38 35 35 36 37 37 39 40 42 43 44 44 42 39 36 35 34 33 31 29 29 28 28 29 28 29 29 28 31 48 52 55 54 52 47 40
50 50 49 44 43 42 39 35 33 34 37 37 37 37 39 43 43 45 45 47 46 43 39 37 35 35 36 33 32 30 30 30 29 31 31 33 45 52 45 50 55 50 44
48 47 48 46 43 40 36 34 36 37 37 36 35 37 40 43 45 45 46 48 50 49 47 46 43 40 37 38 38 37 34 33 31 31 31 35 42 38 47 46 49 48 45
49 49 50 46 41 38 37 38 38 36 35 34 34 37 41 41 42 44 45 48 51 54 53 53 54 52 50 44 42 42 42 43 41 36 33 33 38 38 47 63 45 49 47
48 48 47 44 39 37 36 36 35 34 32 29 29 30 32 32 32 33 33 38 45 53 59 61 59 59 59 63 63 58 50 49 51 50 48 46 45 47 48 50 56 49 47
44 42 38 38 36 34 33 32 31 30 28 27 27 27 28 26 25 24 24 23 24 27 39 56 64 68 67 68 74 74 71 65 62 59 57 56 54 52 50 53 52 54 52
38 36 35 35 34 33 33 33 31 29 28 27 28 30 29 23 22 21 19 18 18 18 18 19 25 40 56 65 68 71 72 72 69 64 61 57 57 55 54 53 57 59 55
38 36 35 35 34 34 34 33 31 29 29 28 29 30 29 22 20 19 17 17 16 15 14 14 15 17 21 25 32 44 55 59 61 65 61 61 55 56 60 59 58 62 70
43 40 39 37 36 34 31 29 29 29 29 29 30 31 29 23 21 19 17 16 15 14 14 13 13 13 13 14 14 17 19 22 33 47 54 59 58 54 58 64 66 68 77
43 41 38 35 33 31 30 30 29 28 28 29 31 31 29 25 21 19 16 15 14 14 13 13 13 12 12 12 11 11 12 12 14 16 30 49 54 56 54 57 64 70 80
39 37 34 33 32 32 32 31 31 31 32 31 31 30 30 26 23 20 17 16 15 14 13 13 13 12 11 11 11 11 11 11 10 10 11 14 30 48 52 61 60 62 76
38 35 33 33 33 33 34 35 34 34 34 34 33 32 31 28 25 22 18 17 15 14 13 12 12 11 11 11 11 10 10 10 10 10 10 10 12 16 35 51 52 58 69
34 36 36 36 36 37 37 36 35 35 36 35 34 32 31 30 27 24 21 17 16 14 13 13 11 11 11 10 10 10 10 9 9 9 9 10 10 11 15 32 43 50 61
32 31 31 31 32 32 32 33 33 33 34 34 33 31 30 29 28 25 24 20 17 15 13 12 12 12 10 10 9 9 9 9 9 10 11 11 11 11 12 16 25 40 45
37 35 33 33 33 33 33 34 33 33 34 33 32 31 30 29 29 28 24 21 19 17 15 13 12 12 11 10 10 10 10 11 11 12 14 14 14 14 13 12 15 19 34
39 40 39 39 39 39 38 37 37 37 36 35 34 34 34 33 31 28 26 24 21 19 17 16 14 13 13 12 11 11 11 12 13 14 13 14 15 18 19 17 15 17 21
46 47 48 46 45 46 44 42 41 41 40 40 39 38 37 37 35 32 29 27 25 23 20 18 16 15 13 13 12 12 12 11 14 13 12 13 15 17 18 21 22 20 19
49 50 52 51 50 50 50 48 47 48 47 47 46 45 44 42 39 37 35 32 29 26 23 20 18 18 17 17 17 17 16 14 14 14 15 14 15 15 16 16 18 22 22
52 54 59 58 57 54 52 50 51 51 54 54 53 51 50 50 48 46 43 39 35 29 26 26 24 23 22 22 23 24 24 26 20 16 15 16 14 14 14 15 17 18 21
50 58 63 62 59 59 55 58 62 62 58 57 54 51 51 51 48 44 43 41 40 39 35 34 32 29 28 27 28 29 31 31 30 26 18 16 15 14 14 15 15 17 19
63 67 69 70 67 67 63 63 62 61 59 56 53 52 53 49 43 40 39 41 42 42 45 45 42 36 36 34 32 32 33 32 33 32 27 17 16 16 16 15 16 17 18
65 68 69 69 70 67 67 66 64 61 58 58 57 54 49 47 47 44 42 41 39 38 36 35 34 33 34 35 34 33 33 35 34 35 33 28 24 17 19 19 18 18 19

GFSSE_prec_cthk_174.txt.gz
RH
50 47 44 40 40 40 38 34 35 36 37 36 34 34 33 35 37 37 35 33 31 30 29 27 26 26 26 26 25 24 25 28 28 26 27 29 33 40 43 42 44 39 35
54 50 48 46 42 44 41 37 37 38 38 36 35 34 34 35 35 35 34 34 33 32 30 29 27 27 26 27 27 25 26 27 26 25 26 29 37 52 51 52 47 41 37
60 54 52 50 48 44 42 40 39 38 35 35 36 36 37 37 38 37 36 34 34 33 32 32 30 29 28 27 27 27 27 29 28 26 27 30 41 50 51 53 54 48 41
65 65 61 50 44 43 43 41 39 37 35 36 37 37 38 40 41 41 39 38 36 34 34 33 32 31 29 28 28 27 27 29 29 30 28 31 42 49 53 54 55 48 43
65 62 58 54 45 43 42 42 38 36 35 37 37 37 38 41 44 44 44 44 42 40 38 36 34 35 34 33 31 30 29 29 30 30 30 31 37 47 48 43 47 48 47
61 57 56 49 45 43 42 40 36 36 38 37 36 35 36 39 44 46 48 49 49 48 47 44 41 38 36 35 34 34 34 32 32 31 30 31 36 46 48 49 53 50 47
55 56 53 48 47 44 41 37 36 36 37 36 35 34 36 39 44 47 48 49 50 53 54 52 50 49 49 44 37 36 37 39 38 35 33 32 35 46 41 58 54 51 48
53 52 50 49 49 44 38 35 36 37 36 35 34 34 34 36 39 40 41 43 46 50 54 59 59 56 56 54 53 47 41 39 38 42 46 45 42 45 45 55 66 53 51
54 53 53 52 46 41 36 36 35 34 34 33 31 29 28 28 30 30 28 28 28 30 36 49 61 65 65 63 61 60 62 60 55 51 52 55 54 51 51 55 65 62 54
54 54 53 49 42 37 36 34 31 30 29 29 27 27 26 27 27 26 23 23 22 22 21 22 25 38 59 68 71 70 70 74 72 66 62 62 59 61 58 56 55 61 64
50 48 46 44 40 37 35 33 32 31 29 28 27 27 27 29 29 27 22 20 19 18 18 17 17 18 20 28 42 59 69 73 72 74 69 63 59 58 61 60 56 57 64
41 41 39 38 38 36 35 34 34 31 30 30 29 27 28 29 29 28 23 20 18 17 16 16 15 14 14 15 18 22 28 35 46 59 63 61 60 56 56 58 61 59 63
39 39 39 38 38 37 36 35 32 31 32 31 29 29 31 30 30 28 25 22 19 16 15 14 14 13 13 13 13 14 14 16 19 20 23 40 53 54 57 54 52 58 59
42 41 39 38 36 35 34 32 32 33 33 32 32 32 32 31 30 29 27 24 21 17 15 14 13 13 13 13 12 12 12 12 12 13 14 17 23 47 54 57 55 55 54
38 38 37 34 33 32 32 32 33 33 33 33 33 34 33 32 32 31 30 27 23 19 16 15 14 13 13 12 12 11 11 11 11 11 11 12 13 17 35 53 52 51 55
38 38 37 35 34 34 33 33 34 34 35 35 34 34 33 32 31 30 30 28 26 22 18 15 14 13 12 11 11 11 10 10 10 10 10 11 12 13 14 21 42 48 48
37 35 33 33 32 32 32 32 31 31 31 31 32 32 33 32 30 29 28 28 28 25 22 18 15 13 12 11 11 10 9 9 10 11 11 11 11 11 12 14 17 32 41
36 35 35 34 33 32 32 33 33 32 32 32 31 31 31 31 30 29 29 29 28 27 24 21 18 15 13 12 11 10 10 10 10 11 12 13 14 13 13 13 14 18 27
38 39 38 37 36 35 36 36 36 36 34 33 34 34 34 32 31 31 31 30 28 27 25 23 20 18 16 13 12 11 11 11 11 13 13 13 16 18 18 18 16 14 16
42 44 44 42 43 44 43 44 44 44 43 42 41 40 38 37 37 36 34 32 30 29 26 24 22 20 18 16 14 13 13 13 15 15 14 15 16 17 18 18 18 19 17
46 46 48 50 50 50 50 46 45 46 46 46 46 45 45 43 42 41 40 38 36 33 28 26 24 21 19 18 17 16 16 16 19 16 16 15 16 15 14 15 15 16 18
50 51 53 55 55 52 51 49 49 49 48 47 50 50 48 47 46 47 47 44 42 41 38 35 31 26 24 21 20 19 19 18 19 17 17 17 16 15 15 16 16 15 16
53 55 57 58 59 57 55 55 53 53 55 57 60 56 54 55 54 51 48 44 37 37 36 34 33 34 36 33 29 26 25 27 21 18 17 17 17 16 17 18 18 17 17
50 50 56 61 62 60 61 61 64 63 65 58 53 54 55 53 51 49 44 38 34 33 34 34 34 34 37 39 41 42 42 39 32 29 21 21 20 19 20 21 20 20 18
57 62 65 65 63 66 65 64 61 58 56 55 53 52 51 49 48 42 39 39 37 36 36 35 34 37 35 35 34 37 39 41 41 41 35 25 22 23 23 23 23 21 20
59 62 66 64 62 63 63 62 58 54 51 50 50 52 52 47 43 42 40 40 40 40 37 34 34 34 34 35 36 36 38 40 40 41 39 35 33 26 28 26 24 23 22

GFSSE_prec_cthk_180.txt.gz
RH
46 46 44 43 42 45 44 43 41 41 41 39 35 35 35 36 36 37 38 38 34 32 33 32 30 28 27 26 25 23 22 23 24 23 23 24 28 36 41 43 45 53 39
46 42 44 45 47 47 46 44 43 44 44 39 36 36 37 38 38 38 39 39 39 35 34 33 32 30 29 28 27 25 23 24 25 24 22 23 30 39 41 46 48 53 43
42 43 45 46 47 48 46 45 45 45 43 39 38 40 42 41 41 41 42 43 42 41 38 34 33 32 31 30 29 28 27 25 25 25 26 34 39 42 44 48 50 50 44
46 45 49 50 50 50 49 47 48 46 42 40 42 45 45 44 45 46 46 44 44 45 44 41 37 35 33 32 31 30 30 29 27 27 32 35 38 38 46 46 48 48 44
48 49 52 55 55 53 51 51 49 44 40 40 42 42 43 43 45 44 44 46 47 48 49 48 46 42 37 35 34 33 31 31 31 31 39 33 36 36 42 45 43 44 44
51 52 57 59 57 57 56 52 49 44 41 42 42 41 40 39 41 40 42 46 49 51 50 50 52 52 50 44 40 38 39 36 33 43 43 40 34 32 35 45 49 52 50
53 57 62 61 63 59 56 53 49 44 41 42 40 38 37 38 37 36 37 38 41 43 44 45 48 52 55 56 54 48 44 44 42 47 46 47 44 37 38 46 45 48 51
55 60 63 67 65 59 56 54 46 40 40 39 37 36 35 33 32 29 28 28 29 29 28 27 29 34 42 50 57 59 57 54 50 57 56 54 48 38 43 46 48 44 53
54 59 59 66 61 59 57 50 42 40 39 37 35 33 32 29 27 26 25 25 26 26 25 23 22 21 21 22 31 51 60 64 64 63 60 65 67 57 51 49 51 51 56
54 58 60 61 60 59 53 45 39 36 32 30 30 29 29 28 27 26 25 25 26 25 24 22 20 18 17 17 18 17 21 41 60 68 73 65 64 64 61 61 60 57 57
53 55 58 58 56 52 46 40 38 34 32 30 29 29 28 27 26 25 25 25 26 26 25 23 20 18 17 16 16 16 16 20 17 33 55 68 75 72 67 62 59 55 56
52 55 56 54 50 46 43 40 37 35 34 32 32 31 28 28 27 26 26 26 26 26 26 25 23 20 18 17 16 15 16 15 16 18 23 23 37 55 65 65 62 57 54
50 50 47 44 43 41 39 38 37 36 36 35 33 29 28 28 27 28 29 29 28 28 28 27 26 24 21 18 16 14 13 13 14 14 16 14 18 22 29 47 56 55 50
47 42 40 41 42 43 43 43 41 39 37 33 30 30 30 30 30 30 30 30 30 30 29 28 27 26 24 22 18 15 14 12 12 12 15 12 13 14 17 22 24 42 48
45 41 43 42 41 40 38 36 35 34 32 31 31 32 32 31 31 31 31 30 29 29 28 28 27 27 26 25 23 20 16 13 12 12 17 12 12 12 12 14 17 20 39
44 43 42 39 37 35 34 34 33 33 32 32 32 30 29 29 28 28 28 27 27 27 27 26 27 27 27 26 25 24 21 17 13 13 18 18 14 12 12 12 13 15 19
43 39 38 36 33 33 33 33 32 31 30 30 29 29 29 29 28 29 29 28 28 28 27 27 27 27 26 26 26 25 24 23 23 19 19 20 18 16 15 14 13 12 14
40 38 37 35 34 35 35 35 35 35 34 34 34 34 35 35 36 37 37 36 35 34 34 33 32 31 28 27 25 24 23 25 25 26 23 20 18 18 18 16 16 16 14
42 40 38 37 39 40 40 40 40 41 40 39 38 39 40 40 40 39 39 37 35 35 33 32 31 30 29 27 27 28 29 29 28 27 25 23 20 18 18 16 15 16 17
43 43 42 42 43 44 45 45 45 45 44 44 45 45 45 44 43 43 42 40 37 36 35 34 33 32 32 30 30 31 34 31 31 31 29 25 22 20 18 18 19 20 17
45 45 45 46 47 49 52 55 54 55 51 50 50 49 47 48 49 45 43 41 37 35 33 30 29 28 31 30 36 36 38 38 35 34 32 30 26 24 22 21 22 21 21
48 47 48 51 53 57 57 56 56 56 56 55 53 51 48 45 42 39 38 36 34 33 30 30 29 32 33 29 33 35 37 40 39 36 35 36 30 34 30 25 22 22 21
52 53 54 58 60 61 59 57 56 56 56 55 51 48 45 43 40 38 34 31 30 27 29 30 31 32 35 36 33 37 41 42 36 37 37 36 36 41 39 38 30 24 23
58 57 57 57 59 59 59 60 60 58 55 54 50 48 45 40 39 35 31 28 28 31 32 34 35 37 37 38 38 39 41 43 41 42 40 36 36 38 41 42 41 37 31
54 54 56 56 57 58 58 60 57 56 53 51 48 42 39 35 33 31 30 31 31 32 34 34 34 35 37 39 38 38 39 40 41 38 40 40 39 41 46 42 45 47 43
52 54 56 58 60 58 58 56 57 55 52 50 42 39 38 36 33 30 30 32 36 35 31 29 29 30 31 33 35 33 35 34 34 36 35 36 38 40 39 42 41 38 42

GFSSE_prec_cthk_183.txt.gz
RH
49 43 41 37 37 38 39 41 41 39 37 37 34 33 35 36 37 38 39 39 38 36 34 33 33 32 30 28 27 25 24 24 25 24 24 22 23 28 36 39 41 53 46
50 44 39 39 42 45 44 44 46 44 41 37 35 35 37 38 38 39 39 40 40 39 38 35 33 32 32 30 29 27 25 25 25 25 24 24 29 31 36 40 43 44 41
48 42 41 43 46 46 48 51 53 51 45 39 38 39 40 41 41 42 42 42 43 43 42 42 39 35 34 33 32 30 28 27 27 26 25 36 44 40 42 43 45 45 45
47 42 42 41 46 47 50 52 56 56 50 45 45 44 44 43 44 44 45 46 46 48 50 53 51 47 40 37 34 33 31 29 28 28 29 50 44 38 36 42 42 39 39
48 44 42 42 46 50 53 53 58 56 48 45 46 46 46 44 44 44 43 44 46 48 49 49 50 50 48 46 42 38 36 34 32 30 37 48 43 44 34 39 43 43 43
50 47 45 45 47 54 57 55 60 55 49 45 44 44 42 40 41 41 41 42 43 45 48 49 50 50 52 54 53 49 43 40 39 40 56 52 43 39 34 32 38 45 46
50 48 46 49 53 59 58 58 59 56 50 45 44 42 39 39 40 40 38 36 34 35 35 35 37 40 45 50 55 58 57 53 48 51 58 60 54 46 41 40 44 47 43
52 47 49 56 62 64 62 61 59 57 48 43 43 39 39 37 35 33 30 28 27 27 27 27 26 24 23 25 33 46 56 61 61 64 66 68 57 57 48 40 43 50 46
52 52 55 57 61 65 62 61 60 52 43 41 38 36 32 28 27 26 26 25 24 25 25 26 25 24 21 19 19 18 22 39 60 68 68 75 70 65 62 57 53 51 51
51 53 57 59 58 64 64 59 55 44 37 35 33 30 29 28 28 27 26 25 24 24 25 25 24 24 23 20 18 17 16 17 20 34 60 66 72 72 70 68 64 61 60
48 52 58 58 60 57 54 51 46 38 34 34 32 30 29 28 28 27 26 25 24 24 24 25 25 24 24 22 20 17 16 19 27 26 37 25 44 69 76 79 75 67 63
49 53 56 59 58 55 51 45 39 37 36 34 32 31 30 29 27 26 25 24 24 25 25 25 25 25 25 24 25 20 20 17 16 21 25 23 20 20 36 64 76 77 70
47 49 52 55 53 48 46 44 42 43 39 36 35 34 33 31 29 28 28 28 28 28 27 27 28 27 26 25 24 23 20 19 20 19 18 17 15 15 19 24 32 50 66
44 46 49 49 44 43 43 43 45 46 43 40 36 34 32 32 29 29 30 30 30 30 30 29 29 28 27 27 26 25 24 23 25 21 19 16 14 12 13 15 23 26 30
45 48 45 42 41 43 46 45 43 41 39 35 33 31 31 32 31 30 29 29 28 27 26 26 25 24 25 26 26 26 26 26 27 29 27 21 18 15 13 13 13 17 21
46 46 46 46 44 43 39 35 35 35 35 34 32 30 29 28 28 28 28 28 28 27 27 27 26 27 28 29 29 28 25 27 31 31 33 30 23 18 17 16 14 13 14
48 47 46 45 42 38 34 35 35 34 35 33 30 29 29 29 30 31 33 33 34 35 34 34 33 34 35 34 32 31 31 31 31 30 30 33 30 25 19 17 17 17 15
47 46 44 42 40 39 37 38 38 38 39 39 37 34 33 33 34 36 39 38 37 37 35 34 34 33 33 32 30 30 30 31 33 32 31 30 29 30 28 22 16 16 17
47 45 44 44 44 42 40 43 42 41 44 44 42 40 38 37 37 39 39 39 39 40 37 33 34 33 32 30 28 29 31 30 34 37 33 32 31 31 30 29 24 20 16
49 48 48 48 47 46 46 47 49 48 49 49 47 43 42 42 42 44 44 40 43 43 40 33 30 32 30 29 26 29 30 30 30 34 35 34 34 34 31 31 29 28 23
53 54 55 54 53 53 53 51 52 53 54 53 50 47 47 46 44 43 49 45 42 39 31 27 25 27 27 27 30 34 35 38 36 32 36 35 36 36 36 34 32 30 29
58 58 58 57 56 56 56 59 60 59 58 58 57 52 50 46 45 44 41 39 33 35 32 25 23 26 30 31 30 30 40 46 47 46 42 43 40 37 38 39 38 34 30
61 64 64 62 61 61 62 62 64 63 61 59 57 54 46 45 42 39 35 33 31 30 29 25 23 27 29 31 31 31 36 44 45 45 48 45 44 43 42 39 40 42 41
62 62 63 64 63 65 67 69 66 66 63 58 52 51 48 41 39 33 30 29 28 31 27 28 28 31 31 30 33 30 34 36 43 43 50 49 45 46 47 47 42 42 43
64 65 66 69 70 70 68 66 64 61 56 53 55 53 45 41 35 29 30 28 28 29 32 30 30 31 30 29 29 30 32 39 38 38 43 51 49 48 48 45 44 40 41
58 61 61 61 61 64 67 68 65 63 60 59 56 48 49 42 36 31 28 31 30 28 27 30 29 25 23 20 17 17 19 21 26 31 38 40 39 45 44 40 42 33 33

GFSSE_prec_cthk_189.txt.gz
RH
41 35 32 31 31 30 31 34 34 35 36 32 32 29 29 29 30 31 33 34 33 34 34 33 31 30 29 29 27 25 24 23 23 24 23 23 28 28 34 36 38 42 42
52 41 36 33 30 31 32 36 38 38 39 35 35 32 30 31 32 34 34 34 34 36 36 37 38 35 32 30 30 29 27 25 24 25 24 35 38 41 42 42 41 42 42
56 45 39 35 32 33 34 37 41 41 43 42 39 36 33 33 33 34 35 37 36 37 39 41 43 45 42 38 34 32 30 28 26 27 37 45 45 48 57 48 44 43 41
45 43 42 37 34 35 36 38 43 46 48 46 42 39 37 36 35 36 36 37 38 37 38 40 42 42 43 43 43 40 36 32 30 29 39 44 44 54 41 42 38 43 43
47 46 43 36 35 36 36 39 46 51 53 52 47 43 39 39 36 34 34 34 36 35 35 37 38 39 39 39 44 48 47 43 37 33 38 43 48 69 54 41 35 32 39
51 49 43 43 39 37 38 42 46 52 54 56 48 41 39 37 36 35 35 34 33 31 29 27 26 27 27 29 30 37 45 51 51 44 42 48 59 62 68 49 42 35 37
47 47 44 42 39 40 42 43 48 54 53 56 48 40 38 37 37 37 34 30 27 27 25 23 23 23 24 24 23 20 21 33 48 55 47 50 56 67 71 58 51 48 39
45 44 44 42 42 43 44 47 53 55 56 58 51 39 38 36 34 31 28 27 27 27 26 24 23 23 24 24 24 23 21 18 20 38 49 51 58 64 66 65 60 55 49
45 45 45 44 44 46 44 48 55 56 59 58 51 40 35 33 30 28 27 27 26 26 26 24 23 23 24 24 23 23 23 22 23 19 23 40 52 57 63 74 74 70 64
44 45 46 48 46 48 50 51 56 57 60 54 47 37 30 29 30 30 29 28 27 26 25 23 23 23 23 23 23 24 24 25 28 30 27 25 26 33 45 53 63 68 70
46 46 47 49 50 53 53 56 57 57 55 48 40 33 30 31 32 32 31 30 28 28 26 25 25 25 25 26 25 24 24 25 27 30 29 30 27 24 24 24 25 37 60
44 44 47 50 52 52 52 53 54 51 45 40 34 32 32 34 35 34 33 30 28 26 25 25 25 25 25 24 23 23 22 23 24 25 27 27 27 25 22 19 19 21 23
47 48 49 50 51 51 49 47 47 47 41 36 34 34 34 35 35 34 31 29 28 27 27 26 26 25 23 23 22 22 22 21 21 23 24 24 24 24 22 20 19 19 19
50 50 50 51 48 51 48 46 46 42 40 37 37 38 39 36 33 30 29 29 28 26 25 25 24 24 24 25 25 25 24 24 24 24 25 27 27 25 23 22 21 20 20
45 46 48 51 50 50 48 47 45 43 41 42 41 39 34 31 31 31 29 26 26 25 26 27 28 29 29 30 30 29 28 28 30 29 31 31 30 27 24 23 22 27 29
41 42 45 51 52 47 46 45 44 44 43 39 34 32 32 32 31 29 30 30 29 29 30 31 31 32 32 34 33 32 30 30 30 29 29 29 29 28 28 28 24 23 28
43 43 44 51 47 44 44 46 45 41 36 34 34 34 34 32 32 35 35 34 33 33 33 34 35 35 35 34 33 32 32 32 31 30 28 27 26 27 28 28 27 26 25
49 48 47 51 48 48 48 47 43 37 35 35 35 35 35 36 38 39 39 39 38 37 37 38 38 36 35 34 33 33 33 32 30 29 29 27 25 26 28 29 29 31 31
55 53 53 56 54 53 53 49 43 43 44 45 43 41 41 41 43 46 46 46 46 43 41 40 37 36 36 33 30 29 29 32 31 29 27 25 24 25 24 26 27 31 33
52 52 53 57 57 56 53 49 47 47 50 53 55 55 55 53 52 52 52 52 50 47 44 39 37 35 33 30 26 27 29 32 32 31 30 30 29 27 25 25 27 28 30
48 49 54 60 60 57 54 51 51 50 51 53 54 54 55 54 55 56 57 54 51 46 40 37 35 32 27 25 22 24 29 33 35 35 37 35 32 30 27 25 24 24 27
45 49 49 54 57 55 53 53 55 56 55 54 56 56 57 57 58 60 57 50 45 42 40 36 31 29 23 22 21 25 35 43 40 41 40 38 37 35 32 31 29 27 27
46 46 47 49 52 51 53 60 63 62 62 63 62 61 62 64 62 56 52 47 45 42 37 31 26 23 23 24 21 20 30 36 38 39 38 38 35 31 30 29 29 29 29
54 48 46 47 52 54 58 61 61 61 64 66 68 69 65 60 58 56 54 50 46 40 33 28 25 27 25 19 18 18 17 21 33 37 38 38 38 33 28 24 23 20 23
60 54 51 48 55 58 63 66 64 63 69 71 70 67 62 61 59 55 54 50 44 36 29 27 26 21 17 15 14 16 15 15 16 27 34 33 37 37 33 24 23 21 16
63 58 53 52 60 61 61 66 63 65 67 68 67 65 63 60 59 55 51 42 33 30 30 29 21 17 16 13 11 13 17 15 15 14 16 17 25 28 27 26 25 22 15